Time,TemperatureF,DewpointF,PressureIn,WindDirection,WindDirectionDegrees,WindSpeedMPH,WindSpeedGustMPH,Humidity,HourlyPrecipIn,Conditions,Clouds,dailyrainin,SoftwareType,DateUTC
2014-10-31 00:00:00,47.0,43.0,30.02,North,5,0.0,0.0,86,0.00,,,0.00,Wunderground v.1.15,2014-10-31 05:00:00,
2014-10-31 00:10:00,46.7,42.7,30.02,North,5,0.0,0.0,86,0.00,,,0.00,Wunderground v.1.15,2014-10-31 05:10:00,
2014-10-31 00:20:00,46.7,42.7,30.02,North,5,0.0,0.0,86,0.00,,,0.00,Wunderground v.1.15,2014-10-31 05:20:00,
2014-10-31 00:30:00,46.4,42.7,30.02,North,5,0.0,0.0,87,0.00,,,0.00,Wunderground v.1.15,2014-10-31 05:30:00,
2014-10-31 00:40:00,46.4,42.7,30.02,North,5,0.0,0.0,87,0.00,,,0.00,Wunderground v.1.15,2014-10-31 05:40:00,
2014-10-31 00:50:00,46.2,42.5,30.02,North,5,0.0,0.0,87,0.00,,,0.00,Wunderground v.1.15,2014-10-31 05:50:00,
2014-10-31 01:00:00,46.0,42.3,30.02,North,5,0.0,0.0,87,0.00,,,0.00,Wunderground v.1.15,2014-10-31 06:00:00,
2014-10-31 01:10:00,45.8,42.2,30.01,North,5,0.0,0.0,87,0.00,,,0.00,Wunderground v.1.15,2014-10-31 06:10:00,
2014-10-31 01:20:00,45.7,42.1,30.01,North,5,0.0,0.0,87,0.00,,,0.00,Wunderground v.1.15,2014-10-31 06:20:00,
2014-10-31 01:30:00,45.5,41.9,30.01,North,5,0.0,0.0,87,0.00,,,0.00,Wunderground v.1.15,2014-10-31 06:30:00,
2014-10-31 01:40:00,45.4,42.1,30.01,North,5,0.0,0.0,88,0.00,,,0.00,Wunderground v.1.15,2014-10-31 06:40:00,
2014-10-31 01:50:00,45.3,42.0,30.01,North,5,0.0,0.0,88,0.00,,,0.00,Wunderground v.1.15,2014-10-31 06:50:00,
2014-10-31 02:00:00,45.2,41.9,30.01,North,5,0.0,0.0,88,0.00,,,0.00,Wunderground v.1.15,2014-10-31 07:00:00,
2014-10-31 02:10:00,45.0,41.7,30.01,North,5,0.0,0.0,88,0.00,,,0.00,Wunderground v.1.15,2014-10-31 07:10:00,
2014-10-31 02:20:00,44.8,41.5,30.01,North,5,0.0,0.0,88,0.00,,,0.00,Wunderground v.1.15,2014-10-31 07:20:00,
2014-10-31 02:30:00,44.7,41.4,30.01,North,5,0.0,0.0,88,0.00,,,0.00,Wunderground v.1.15,2014-10-31 07:30:00,
2014-10-31 02:40:00,44.4,41.1,30.01,North,5,0.0,0.0,88,0.00,,,0.00,Wunderground v.1.15,2014-10-31 07:40:00,
2014-10-31 02:50:00,44.4,41.1,30.00,North,5,0.0,0.0,88,0.00,,,0.00,Wunderground v.1.15,2014-10-31 07:50:00,
2014-10-31 03:00:00,44.3,41.0,30.01,North,5,0.0,0.0,88,0.00,,,0.00,Wunderground v.1.15,2014-10-31 08:00:00,
2014-10-31 03:10:00,44.2,40.9,30.00,North,5,0.0,0.0,88,0.00,,,0.00,Wunderground v.1.15,2014-10-31 08:10:00,
2014-10-31 03:20:00,44.2,40.9,30.01,North,5,0.0,0.0,88,0.00,,,0.00,Wunderground v.1.15,2014-10-31 08:20:00,